Apolo11.com - Imagens de satélite, tecnologia e fenômenos naturais




Elementos Keplerianos formato Two Line

Para que um programa de rastreio possa saber a localização exata de qualquer satélite no espaço e assim poder rastreá-lo corretamente, é necessário que ele seja carregado com algumas informações.

Estas informações são chamadas de Elementos Orbitais ou Elementos Keplerianos e consistem em 2 linhas com dezenas de números. Esses números nada mais são que os parâmetros orbitais do satélite, tais como altitude, atitude, excentricidade da órbita, número de órbitas por dia, etc.

Com base nestas informações o programa é capaz de determinar com bastante exatidão a posição de qualquer satélite no espaço e nos informar em qual horário este estará dentro do alcance de nossa estação. Para que isso seja feito com precisão é necessário que os dados estejam sempre bem atualizadas.

Devido aos parâmetros orbitais serem descritos em 2 linhas, estes formato é também conhecido internacionalmente por 2line (leia-se Two Line”).

Para atualizar seu programa de rastreio basta copiar os dados disponibilizados e fornece-los ao programa. Nossos elementos orbitais são atualizados diariamente.


NOAATodos os satélites ambientais da série NOAA
30 DiasSatélites lançados nos últimos 30 dias
ISSSatélites e foguetes relacionados à Estação Espacial Internacional
HAMSatélites construídos por radiomadores
CUBESatélites tipo cubo, com 10 centímetros de lado
METEOSatélites voltados à previsão do tempo
EDUSatélites construídos e operados por universidades
VIS100 satélites mais brilhantes que podem ser vistos a olho nú


Estação Espacial Internacional
ISS (ZARYA)             
1 25544U 98067A   12212.94052083  .00010023  00000-0  15450-3 0   275
2 25544  51.6431 263.7924 0000841   3.0854  11.4331 15.54826243784820
TIANGONG 1              
1 37820U 11053A   12212.87329532  .00029161  00000-0  22756-3 0  9744
2 37820  42.7823 145.2684 0006458 153.2498 256.3118 15.71057063 48095
ATV-3 (EDOARDO AMALDI)  
1 38096U 12010A   12211.54906219  .00005528  00000-0  88654-4 0  1046
2 38096  51.6428 270.7334 0000768   0.9461 139.9258 15.54758210 20019
PROGRESS-M 15M          
1 38222U 12015A   12212.51290341  .00008596  00000-0  13359-3 0  1027
2 38222  51.6432 265.9268 0000850 359.3880 140.0114 15.54814705 15723
SOYUZ-TMA 04M           
1 38291U 12022A   12211.54906219  .00005528  00000-0  88654-4 0   663
2 38291  51.6428 270.7334 0000768   0.9461 139.9258 15.54758210 11757
SOYUZ-TMA 05M           
1 38671U 12037A   12211.54906219  .00005528  00000-0  88654-4 0   199
2 38671  51.6428 270.7334 0000768   0.9461 139.9258 15.54758210  2254
HTV-3 (KOUNOTORI 3)     
1 38706U 12038A   12211.54906219  .00005528  00000-0  88654-4 0   290
2 38706  51.6428 270.7334 0000768   0.9461 139.9258 15.54758210  1331


IMAGENS DE SATÉLITES !    Clique e conheça nosso Vídeo Workshop de sensoriamento remoto e imagens meteorológicas.
Apolo11.com - Todos os direitos reservados - 2001 - 2013
Política de Privacidade

"Deixe que me odeiem, de maneira que me temam!" - Calígula